Location: Oshawa
(43.9000°N, 78.8670°W)
Time: 12:29:48
(UTC-04:00)

Iridium 54 - Visible Passes

Search period start: 23 May 2018 00:00
Search period end: 02 June 2018 00:00
Orbit: 776 x 779 km, 86.4° (Epoch: 23 May)

Date Brightness Start Highest point End Pass type
(mag) Time Alt. Az. Time Alt. Az. Time Alt. Az.
23 May 5.5 22:57:24 33° SSE 22:59:44 67° E 23:04:55 10° N visible
24 May 7.9 00:37:54 10° WSW 00:40:59 16° WNW 00:44:05 10° NW visible
24 May 6.2 22:23:40 22° SE 22:26:20 37° E 22:31:06 10° NNE visible
25 May 7.2 00:04:07 16° SW 00:07:07 27° WNW 00:11:33 10° NNW visible
25 May 7.0 21:49:54 13° ESE 21:53:03 21° E 21:56:55 10° NNE visible
25 May 6.3 23:30:21 22° SSW 23:33:24 48° W 23:38:27 10° N visible
26 May 7.5 21:18:06 10° E 21:19:54 12° ENE 21:21:43 10° NE visible
26 May 5.5 22:56:35 24° S 22:59:49 86° W 23:05:03 10° N visible
27 May 8.2 00:40:05 10° W 00:41:21 11° WNW 00:42:38 10° NW visible
27 May 5.8 22:22:47 19° SSE 22:26:20 53° E 22:31:24 10° NNE visible
28 May 7.7 00:03:41 10° WSW 00:07:24 20° WNW 00:11:08 10° NNW visible
28 May 6.5 21:48:58 12° SE 21:52:59 30° E 21:57:28 10° NNE visible
28 May 6.9 23:29:24 12° SW 23:33:35 34° W 23:38:19 10° NNW visible
29 May 7.2 21:16:29 10° ESE 21:19:45 17° ENE 21:23:01 10° NE visible
29 May 6.0 22:55:35 15° SSW 22:59:55 60° W 23:05:06 10° N visible
30 May 5.5 22:21:43 13° S 22:26:22 76° E 22:31:36 10° N visible
31 May 8.1 00:05:05 10° WSW 00:07:43 14° WNW 00:10:23 10° NW visible
31 May 6.0 21:48:04 10° SSE 21:52:57 42° E 21:57:50 10° NNE visible
31 May 7.5 23:29:38 10° SW 23:33:50 24° WNW 23:38:03 10° NNW visible
01 Jun 6.6 22:55:09 10° SSW 23:00:04 42° W 23:05:02 10° N visible
